Time,TemperatureF,DewpointF,PressureIn,WindDirection,WindDirectionDegrees,WindSpeedMPH,WindSpeedGustMPH,Humidity,HourlyPrecipIn,Conditions,Clouds,dailyrainin,SolarRadiationWatts/m^2,SoftwareType,DateUTC
2013-01-29 00:00:00,26.3,25.0,29.68,NNE,18,3.0,4.0,94,0.00,,,0.00,0,weatherlink.com 1.10,2013-01-29 05:00:00,
2013-01-29 00:15:00,26.1,25.0,29.68,NNE,18,1.0,3.0,94,0.00,,,0.00,0,weatherlink.com 1.10,2013-01-29 05:15:00,
2013-01-29 00:30:00,26.1,25.0,29.68,NNE,18,2.0,3.0,94,0.00,,,0.00,0,weatherlink.com 1.10,2013-01-29 05:30:00,
2013-01-29 00:45:00,26.0,25.0,29.68,NNE,17,1.0,3.0,94,0.00,,,0.00,0,weatherlink.com 1.10,2013-01-29 05:45:00,
2013-01-29 01:01:00,25.9,24.0,29.68,North,11,2.0,3.0,94,0.00,,,0.00,0,weatherlink.com 1.10,2013-01-29 06:01:00,
2013-01-29 01:16:00,25.8,24.0,29.69,North,5,1.0,3.0,94,0.00,,,0.00,0,weatherlink.com 1.10,2013-01-29 06:16:00,
2013-01-29 01:30:00,25.8,24.0,29.70,NNW,348,1.0,3.0,94,0.00,,,0.00,0,weatherlink.com 1.10,2013-01-29 06:30:00,
2013-01-29 01:46:00,25.7,24.0,29.70,NNW,348,2.0,3.0,94,0.00,,,0.00,0,weatherlink.com 1.10,2013-01-29 06:46:00,
2013-01-29 02:00:00,25.6,24.0,29.70,NNW,348,2.0,4.0,94,0.00,,,0.00,0,weatherlink.com 1.10,2013-01-29 07:00:00,
2013-01-29 02:16:00,25.5,24.0,29.71,North,360,1.0,3.0,94,0.00,,,0.00,0,weatherlink.com 1.10,2013-01-29 07:16:00,
2013-01-29 02:31:00,25.5,24.0,29.71,North,360,0.0,3.0,94,0.00,,,0.00,0,weatherlink.com 1.10,2013-01-29 07:31:00,
2013-01-29 02:45:00,25.5,24.0,29.71,NNW,331,1.0,3.0,94,0.00,,,0.00,0,weatherlink.com 1.10,2013-01-29 07:45:00,
2013-01-29 03:00:00,25.3,24.0,29.72,NNW,331,3.0,4.0,94,0.00,,,0.00,0,weatherlink.com 1.10,2013-01-29 08:00:00,
2013-01-29 03:15:00,25.3,24.0,29.72,NNW,337,1.0,3.0,94,0.00,,,0.00,0,weatherlink.com 1.10,2013-01-29 08:15:00,
2013-01-29 03:30:00,25.3,24.0,29.72,NNW,342,2.0,4.0,94,0.00,,,0.00,0,weatherlink.com 1.10,2013-01-29 08:30:00,
2013-01-29 03:45:00,25.3,24.0,29.72,North,360,3.0,5.0,94,0.00,,,0.00,0,weatherlink.com 1.10,2013-01-29 08:45:00,
2013-01-29 04:01:00,25.2,24.0,29.73,NW,313,3.0,5.0,94,0.00,,,0.00,0,weatherlink.com 1.10,2013-01-29 09:01:00,
2013-01-29 04:16:00,25.2,24.0,29.73,NNW,346,2.0,5.0,94,0.00,,,0.00,0,weatherlink.com 1.10,2013-01-29 09:16:00,
2013-01-29 04:31:00,25.2,24.0,29.73,NNW,346,0.0,4.0,94,0.00,,,0.00,0,weatherlink.com 1.10,2013-01-29 09:31:00,
2013-01-29 04:46:00,25.2,24.0,29.74,NNW,346,0.0,4.0,94,0.00,,,0.00,0,weatherlink.com 1.10,2013-01-29 09:46:00,
2013-01-29 05:01:00,25.2,24.0,29.73,NNW,334,2.0,3.0,94,0.00,,,0.00,0,weatherlink.com 1.10,2013-01-29 10:01:00,
2013-01-29 05:16:00,25.3,24.0,29.74,NNW,347,1.0,4.0,94,0.00,,,0.00,0,weatherlink.com 1.10,2013-01-29 10:16:00,
2013-01-29 05:31:00,25.3,24.0,29.75,NNW,347,0.0,3.0,93,0.00,,,0.00,0,weatherlink.com 1.10,2013-01-29 10:31:00,
2013-01-29 05:46:00,25.3,24.0,29.75,NNW,347,0.0,3.0,93,0.00,,,0.00,0,weatherlink.com 1.10,2013-01-29 10:46:00,
2013-01-29 06:01:00,25.2,24.0,29.76,North,355,0.0,4.0,93,0.00,,,0.00,0,weatherlink.com 1.10,2013-01-29 11:01:00,
2013-01-29 06:16:00,25.1,23.0,29.76,North,355,0.0,1.0,93,0.00,,,0.00,0,weatherlink.com 1.10,2013-01-29 11:16:00,
2013-01-29 06:31:00,25.0,23.0,29.77,North,355,0.0,2.0,93,0.00,,,0.00,0,weatherlink.com 1.10,2013-01-29 11:31:00,
2013-01-29 06:46:00,24.9,23.0,29.79,North,355,2.0,3.0,93,0.00,,,0.00,0,weatherlink.com 1.10,2013-01-29 11:46:00,
2013-01-29 07:01:00,24.9,23.0,29.78,North,355,2.0,3.0,93,0.00,,,0.00,0,weatherlink.com 1.10,2013-01-29 12:01:00,
2013-01-29 07:16:00,24.9,23.0,29.79,North,355,1.0,3.0,93,0.00,,,0.00,0,weatherlink.com 1.10,2013-01-29 12:16:00,
2013-01-29 07:31:00,25.0,23.0,29.80,NNW,340,3.0,4.0,93,0.00,,,0.00,7,weatherlink.com 1.10,2013-01-29 12:31:00,
2013-01-29 07:46:00,25.1,23.0,29.81,NNW,340,1.0,3.0,93,0.00,,,0.00,14,weatherlink.com 1.10,2013-01-29 12:46:00,
2013-01-29 08:01:00,25.2,24.0,29.80,NNW,340,1.0,3.0,93,0.00,,,0.00,19,weatherlink.com 1.10,2013-01-29 13:01:00,
2013-01-29 08:16:00,25.6,24.0,29.82,NNW,340,3.0,3.0,93,0.00,,,0.00,26,weatherlink.com 1.10,2013-01-29 13:16:00,
2013-01-29 08:31:00,25.8,24.0,29.82,NNW,343,0.0,3.0,93,0.00,,,0.00,39,weatherlink.com 1.10,2013-01-29 13:31:00,
2013-01-29 08:46:00,26.3,25.0,29.82,NNW,343,1.0,3.0,93,0.00,,,0.00,47,weatherlink.com 1.10,2013-01-29 13:46:00,
2013-01-29 09:01:00,26.7,25.0,29.83,NW,321,0.0,4.0,93,0.00,,,0.00,46,weatherlink.com 1.10,2013-01-29 14:01:00,
2013-01-29 09:16:00,27.0,25.0,29.82,NNW,348,4.0,4.0,92,0.00,,,0.00,63,weatherlink.com 1.10,2013-01-29 14:16:00,
2013-01-29 09:32:00,27.4,25.0,29.82,NNW,348,4.0,5.0,92,0.00,,,0.00,65,weatherlink.com 1.10,2013-01-29 14:32:00,
2013-01-29 09:46:00,27.8,26.0,29.83,North,5,2.0,4.0,92,0.00,,,0.00,67,weatherlink.com 1.10,2013-01-29 14:46:00,
2013-01-29 10:02:00,28.6,27.0,29.83,North,5,0.0,3.0,92,0.00,,,0.00,84,weatherlink.com 1.10,2013-01-29 15:02:00,
2013-01-29 10:16:00,29.0,27.0,29.84,NNW,328,2.0,5.0,92,0.00,,,0.00,76,weatherlink.com 1.10,2013-01-29 15:16:00,
2013-01-29 10:31:00,29.2,27.0,29.84,North,355,2.0,4.0,91,0.00,,,0.00,83,weatherlink.com 1.10,2013-01-29 15:31:00,
2013-01-29 10:47:00,29.4,27.0,29.84,NNE,26,1.0,4.0,91,0.00,,,0.00,102,weatherlink.com 1.10,2013-01-29 15:47:00,
2013-01-29 11:02:00,29.8,28.0,29.84,North,355,1.0,3.0,91,0.00,,,0.00,114,weatherlink.com 1.10,2013-01-29 16:02:00,
2013-01-29 11:16:00,30.2,28.0,29.84,North,355,0.0,3.0,91,0.01,,,0.01,107,weatherlink.com 1.10,2013-01-29 16:16:00,
2013-01-29 11:32:00,30.5,28.0,29.84,North,355,2.0,3.0,90,0.01,,,0.01,120,weatherlink.com 1.10,2013-01-29 16:32:00,
2013-01-29 11:47:00,30.5,28.0,29.84,NNW,345,1.0,5.0,90,0.02,,,0.02,144,weatherlink.com 1.10,2013-01-29 16:47:00,
2013-01-29 12:02:00,30.7,28.0,29.83,NNW,346,0.0,4.0,91,0.02,,,0.02,151,weatherlink.com 1.10,2013-01-29 17:02:00,
2013-01-29 12:17:00,31.0,29.0,29.83,NNW,338,2.0,3.0,91,0.02,,,0.03,156,weatherlink.com 1.10,2013-01-29 17:17:00,
2013-01-29 12:32:00,31.4,29.0,29.83,NW,304,3.0,3.0,91,0.02,,,0.03,151,weatherlink.com 1.10,2013-01-29 17:32:00,
2013-01-29 12:47:00,31.5,29.0,29.82,NNE,28,0.0,3.0,91,0.02,,,0.04,229,weatherlink.com 1.10,2013-01-29 17:47:00,
2013-01-29 13:02:00,32.2,30.0,29.82,NNE,24,1.0,4.0,90,0.03,,,0.05,179,weatherlink.com 1.10,2013-01-29 18:02:00,
2013-01-29 13:17:00,32.6,30.0,29.82,NNE,24,0.0,1.0,90,0.02,,,0.05,114,weatherlink.com 1.10,2013-01-29 18:17:00,
2013-01-29 13:32:00,32.8,30.0,29.82,NNE,24,2.0,4.0,89,0.03,,,0.06,176,weatherlink.com 1.10,2013-01-29 18:32:00,
2013-01-29 13:47:00,32.5,30.0,29.81,NNE,24,1.0,4.0,90,0.03,,,0.07,207,weatherlink.com 1.10,2013-01-29 18:47:00,
2013-01-29 14:02:00,32.9,30.0,29.82,NNE,24,1.0,2.0,90,0.02,,,0.07,151,weatherlink.com 1.10,2013-01-29 19:02:00,
2013-01-29 14:17:00,33.0,30.0,29.82,NNE,24,0.0,1.0,90,0.03,,,0.08,123,weatherlink.com 1.10,2013-01-29 19:17:00,
2013-01-29 14:32:00,33.4,31.0,29.82,NNE,24,2.0,2.0,89,0.02,,,0.08,74,weatherlink.com 1.10,2013-01-29 19:32:00,
2013-01-29 14:47:00,33.5,31.0,29.83,NNE,24,0.0,2.0,89,0.01,,,0.08,67,weatherlink.com 1.10,2013-01-29 19:47:00,
2013-01-29 15:02:00,33.5,31.0,29.83,NNE,24,0.0,1.0,89,0.01,,,0.08,69,weatherlink.com 1.10,2013-01-29 20:02:00,
2013-01-29 15:17:00,33.5,31.0,29.82,NNE,24,0.0,1.0,90,0.01,,,0.09,63,weatherlink.com 1.10,2013-01-29 20:17:00,
2013-01-29 15:32:00,33.5,31.0,29.82,NNE,24,0.0,0.0,90,0.01,,,0.09,46,weatherlink.com 1.10,2013-01-29 20:32:00,
2013-01-29 15:47:00,33.5,31.0,29.82,NNE,24,0.0,0.0,90,0.01,,,0.09,26,weatherlink.com 1.10,2013-01-29 20:47:00,
2013-01-29 16:02:00,33.3,31.0,29.82,NNE,24,0.0,2.0,90,0.01,,,0.09,21,weatherlink.com 1.10,2013-01-29 21:02:00,
2013-01-29 16:17:00,33.3,31.0,29.82,NNE,24,0.0,0.0,91,0.00,,,0.09,12,weatherlink.com 1.10,2013-01-29 21:17:00,
2013-01-29 16:32:00,33.3,31.0,29.82,NNE,24,0.0,1.0,91,0.00,,,0.09,7,weatherlink.com 1.10,2013-01-29 21:32:00,
2013-01-29 16:47:00,33.2,31.0,29.83,NNE,24,0.0,1.0,92,0.00,,,0.09,0,weatherlink.com 1.10,2013-01-29 21:47:00,
2013-01-29 17:02:00,33.2,31.0,29.82,NNE,24,0.0,0.0,92,0.00,,,0.09,0,weatherlink.com 1.10,2013-01-29 22:02:00,
2013-01-29 17:17:00,33.1,31.0,29.82,NNE,24,0.0,2.0,92,0.00,,,0.09,0,weatherlink.com 1.10,2013-01-29 22:17:00,
2013-01-29 17:32:00,33.0,31.0,29.83,NNE,24,0.0,0.0,92,0.00,,,0.09,0,weatherlink.com 1.10,2013-01-29 22:32:00,
2013-01-29 17:48:00,32.9,31.0,29.83,NNE,24,0.0,1.0,92,0.00,,,0.09,0,weatherlink.com 1.10,2013-01-29 22:48:00,
2013-01-29 18:02:00,32.9,31.0,29.84,NNE,24,0.0,0.0,93,0.00,,,0.09,0,weatherlink.com 1.10,2013-01-29 23:02:00,
2013-01-29 18:17:00,32.9,31.0,29.84,NNE,24,0.0,0.0,93,0.00,,,0.09,0,weatherlink.com 1.10,2013-01-29 23:17:00,
2013-01-29 18:32:00,32.8,31.0,29.84,NNE,24,0.0,0.0,93,0.00,,,0.09,0,weatherlink.com 1.10,2013-01-29 23:32:00,
2013-01-29 18:47:00,32.8,31.0,29.84,NNE,24,0.0,0.0,93,0.00,,,0.09,0,weatherlink.com 1.10,2013-01-29 23:47:00,
2013-01-29 19:02:00,32.8,31.0,29.83,NNE,24,0.0,2.0,94,0.00,,,0.09,0,weatherlink.com 1.10,2013-01-30 00:02:00,
2013-01-29 19:17:00,32.8,31.0,29.82,NNE,24,1.0,2.0,94,0.00,,,0.09,0,weatherlink.com 1.10,2013-01-30 00:17:00,
2013-01-29 19:32:00,32.8,31.0,29.84,NNE,24,0.0,1.0,94,0.00,,,0.09,0,weatherlink.com 1.10,2013-01-30 00:32:00,
2013-01-29 19:47:00,32.8,31.0,29.84,NNE,24,0.0,0.0,94,0.00,,,0.09,0,weatherlink.com 1.10,2013-01-30 00:47:00,
2013-01-29 20:02:00,32.8,31.0,29.83,NNE,24,0.0,1.0,94,0.00,,,0.09,0,weatherlink.com 1.10,2013-01-30 01:02:00,
2013-01-29 20:17:00,32.8,31.0,29.84,NNE,29,0.0,2.0,94,0.00,,,0.09,0,weatherlink.com 1.10,2013-01-30 01:17:00,
2013-01-29 20:32:00,32.8,32.0,29.86,NNE,29,0.0,2.0,95,0.01,,,0.10,0,weatherlink.com 1.10,2013-01-30 01:32:00,
2013-01-29 20:47:00,32.8,32.0,29.85,NNE,29,0.0,0.0,95,0.01,,,0.10,0,weatherlink.com 1.10,2013-01-30 01:47:00,
2013-01-29 21:02:00,32.9,32.0,29.84,NNE,29,0.0,2.0,95,0.02,,,0.11,0,weatherlink.com 1.10,2013-01-30 02:02:00,
2013-01-29 21:17:00,32.9,32.0,29.82,NNE,29,0.0,2.0,95,0.02,,,0.11,0,weatherlink.com 1.10,2013-01-30 02:17:00,
2013-01-29 21:32:00,32.9,32.0,29.82,NNE,30,2.0,2.0,95,0.01,,,0.11,0,weatherlink.com 1.10,2013-01-30 02:32:00,
2013-01-29 21:47:00,33.0,32.0,29.82,NNE,30,0.0,2.0,95,0.02,,,0.12,0,weatherlink.com 1.10,2013-01-30 02:47:00,
2013-01-29 22:02:00,33.0,32.0,29.82,NNE,30,0.0,1.0,95,0.02,,,0.13,0,weatherlink.com 1.10,2013-01-30 03:02:00,
2013-01-29 22:17:00,33.0,32.0,29.81,NNE,30,0.0,0.0,95,0.02,,,0.13,0,weatherlink.com 1.10,2013-01-30 03:17:00,
2013-01-29 22:32:00,33.0,32.0,29.80,NNE,30,0.0,2.0,96,0.01,,,0.13,0,weatherlink.com 1.10,2013-01-30 03:32:00,
2013-01-29 22:48:00,33.0,32.0,29.81,NNE,30,0.0,1.0,96,0.01,,,0.13,0,weatherlink.com 1.10,2013-01-30 03:48:00,
2013-01-29 23:02:00,33.0,32.0,29.80,NNE,30,0.0,0.0,96,0.00,,,0.13,0,weatherlink.com 1.10,2013-01-30 04:02:00,
2013-01-29 23:17:00,33.1,32.0,29.80,NNE,30,0.0,0.0,96,0.00,,,0.13,0,weatherlink.com 1.10,2013-01-30 04:17:00,
2013-01-29 23:32:00,33.1,32.0,29.81,NNE,30,0.0,0.0,96,0.01,,,0.14,0,weatherlink.com 1.10,2013-01-30 04:32:00,
2013-01-29 23:47:00,33.1,32.0,29.81,NNE,30,0.0,0.0,96,0.01,,,0.14,0,weatherlink.com 1.10,2013-01-30 04:47:00,